sat.trackr.live / text

‹ back to catalog

STARLINK-6115

NORAD 56123 · 2023-046AH

PAYLOAD ACTIVE UNKNOWN

§ Identity

Operator
Country
US
Launch date
2023-03-29
Launch site
AFETR
Launch vehicle
Mass (kg)
RCS (m²)

Purposes: comms

External: N2YO · Heavens-Above · Gunter

§ Orbital elements

Epoch: 2026-09-20T22:17:31.196256Z

Period
94.27 min
Inclination
43.0031°
Eccentricity
0.0001311
Mean motion
15.27575051 rev/d
Perigee alt
482.2 km
Apogee alt
484.0 km
Semi-major
6,861.2 km
B*
5.1637e-8
RAAN
124.8774°
Arg perigee
263.5974°
Mean anomaly
96.4728°
Rev number
19,205

§ Raw data

STARLINK-61151 56123U 23046AH  26263.92883329 -.00000261  00000+0  51637-7 0  99932 56123  43.0031 124.8774 0001311 263.5974  96.4728 15.27575051192056

JSON: /api/v1/satellites/56123 · /tle

For live sub-satellite position, see the globe view (requires WebGL).

§ Visibility from observer

Set your observer location to see the next 7 days of passes ≥ 10°. The values pass through the URL so the page stays shareable.

No JS? Fill the form by hand. The geolocation button needs JavaScript.